Vorticity
9 8 8 8 8 8 8 7 7 7 7 8 8 8 8 8 8 8 8 8 7 7 7 7 7 7 8 8 8 8 8 8 8 7 8 7 7 7 8 7 7 7 7 7 8 7 7 7 9 9 9 9 10 10 9 10 10 11 11 11 12 18 20 14 13 13 8 8 10 11 10 10 9 6 7 7 7 2 2 4 6 7 6 6 4 1 3 4
9 9 8 8 8 7 7 7 7 7 7 7 7 7 7 7 8 8 8 8 8 7 7 7 7 8 8 8 8 8 8 7 7 7 7 7 7 7 8 7 7 7 6 7 7 7 8 8 8 8 8 8 9 9 9 10 10 11 10 10 15 19 18 16 15 9 6 7 10 12 9 9 8 5 8 9 5 2 3 3 4 5 5 6 1 -2 1 4
11 10 9 8 8 7 7 6 6 6 5 5 5 5 6 6 6 7 7 7 7 7 7 7 7 7 7 7 7 7 7 7 7 7 7 7 7 7 7 7 7 7 7 7 7 8 8 7 7 7 8 8 9 10 10 10 10 11 10 12 16 18 17 16 12 8 5 5 11 12 7 8 8 7 7 5 4 3 1 0 3 3 2 3 -0 -3 -1 4
11 11 10 10 9 8 8 7 7 6 5 5 5 5 5 6 6 6 7 7 7 7 7 7 7 7 7 7 6 6 6 6 6 7 7 7 7 7 7 7 7 7 7 6 7 8 8 8 8 8 9 9 10 11 11 10 10 11 12 12 14 17 18 12 11 10 4 5 10 10 8 7 7 10 8 5 8 5 -3 -4 0 3 2 1 -0 -0 -3 -1
7 9 10 10 10 9 9 9 8 8 8 7 6 6 6 6 6 6 7 7 7 7 7 7 7 6 6 6 6 6 6 6 7 7 8 7 7 8 7 7 7 7 7 7 7 7 8 8 8 9 10 9 10 12 10 8 10 12 12 11 12 19 17 9 14 13 3 5 9 8 8 5 6 9 9 8 8 6 4 4 2 1 1 -0 -1 0 -2 -1
5 5 7 8 9 9 9 9 9 9 9 9 9 8 7 7 6 6 6 6 7 6 7 6 6 6 6 6 6 6 6 6 7 7 7 7 7 7 7 7 7 7 7 7 7 8 9 9 10 10 9 10 11 11 8 7 11 12 11 12 14 19 16 10 16 12 2 5 6 6 8 7 8 6 7 10 6 2 1 1 2 1 1 1 1 3 4 5
4 4 5 6 7 8 9 9 9 9 9 9 9 9 8 8 7 7 6 6 7 7 6 6 6 6 6 6 6 6 6 6 6 6 6 7 7 7 7 7 7 7 8 8 9 10 11 11 11 9 9 10 10 9 7 7 12 13 11 12 14 18 16 10 14 9 2 5 4 4 7 9 8 4 6 8 6 4 -4 -7 -1 2 4 3 2 5 9 8
5 5 5 5 6 7 7 8 9 9 9 9 8 8 8 8 8 7 6 6 6 6 6 6 6 6 6 6 6 6 5 5 6 6 6 6 7 7 7 8 8 9 9 9 10 11 10 10 8 7 8 6 7 8 6 8 13 14 11 11 13 17 16 10 12 12 7 6 4 4 7 10 9 5 8 7 5 7 3 -0 0 2 3 3 1 2 8 11
8 7 5 5 6 6 6 7 7 8 8 9 9 9 8 8 8 7 7 6 6 6 6 6 6 6 6 6 6 6 5 5 5 5 5 6 6 6 7 8 9 9 10 10 10 10 8 6 4 6 7 6 10 10 7 11 14 13 12 12 14 17 16 11 12 14 9 3 3 5 5 10 11 5 8 9 6 7 7 3 -2 -1 -2 -2 -0 1 8 12
9 8 7 7 6 6 7 6 6 7 7 8 8 8 8 8 8 8 7 7 7 7 7 7 6 6 6 6 6 5 5 6 5 5 6 6 6 7 8 7 8 8 9 10 8 7 6 6 7 10 11 11 13 10 9 13 12 11 12 14 16 18 17 12 12 14 12 5 2 4 1 5 8 4 7 9 7 7 9 6 1 -2 -5 -2 3 8 16 12
9 9 9 8 8 7 7 7 7 7 7 6 6 6 6 7 7 7 7 7 7 7 7 7 7 6 6 7 6 5 6 7 6 6 6 6 6 7 7 7 7 7 9 8 6 6 7 9 9 9 9 9 10 8 9 10 9 11 13 13 16 18 17 12 11 14 16 10 3 -0 -4 3 6 3 5 6 6 6 5 3 0 -1 1 6 6 10 17 12
10 10 9 9 9 8 7 8 7 7 7 7 6 5 5 5 5 5 5 5 6 6 7 7 7 7 7 8 7 6 7 8 8 7 5 5 5 4 4 4 6 8 9 7 5 7 9 9 8 7 8 9 10 8 8 10 10 10 12 14 15 18 17 13 12 14 15 13 11 3 -6 -1 5 3 3 4 1 -2 -1 -1 1 6 8 8 4 9 17 12
11 11 10 10 10 10 9 8 8 8 8 8 8 7 6 6 5 5 5 5 6 6 7 7 8 7 7 11 9 6 8 8 8 6 4 4 5 6 6 6 8 9 8 6 7 8 8 8 8 9 11 11 9 9 9 11 10 10 12 13 15 16 16 14 13 15 16 12 15 12 -0 -5 -2 4 4 5 5 -0 3 5 8 10 5 6 5 9 19 12
11 11 11 11 11 11 10 9 9 9 9 9 10 9 8 8 7 8 6 7 7 6 7 6 7 7 6 13 11 5 8 9 8 8 7 9 10 9 9 9 11 11 9 8 9 9 9 10 10 10 11 9 8 8 8 9 8 9 10 12 14 14 15 16 13 13 14 13 16 16 11 0 -6 1 1 3 9 8 12 13 11 9 6 11 11 11 16 16
10 10 11 12 12 12 11 10 9 9 9 10 10 9 9 9 9 9 8 9 9 8 8 6 8 7 4 14 13 4 7 10 10 9 9 10 9 7 7 9 11 12 10 9 10 9 10 12 10 10 9 7 8 7 6 7 9 10 8 9 12 11 11 14 13 12 11 11 15 14 16 11 -1 1 1 2 4 4 11 10 6 6 5 10 11 15 16 14
10 9 10 11 11 12 11 11 10 10 10 10 11 9 9 10 9 9 9 9 9 9 9 8 10 8 5 12 14 7 7 9 12 11 9 8 7 5 7 9 10 9 7 7 8 8 11 14 10 8 7 8 9 7 5 4 6 9 9 9 11 11 10 10 10 12 11 9 13 13 15 16 9 3 1 4 4 2 6 8 10 3 -7 1 9 14 17 16
10 9 9 10 11 11 11 11 11 11 12 11 11 10 10 10 9 9 9 9 10 10 9 9 10 10 9 11 12 11 8 8 12 13 11 8 6 6 8 9 9 8 7 7 9 10 12 12 8 7 7 8 8 7 5 5 5 7 10 11 12 12 12 10 9 10 11 8 9 11 12 15 15 9 2 3 5 2 -2 -2 2 -7 -16 -3 9 13 16 14
10 8 8 9 10 10 11 11 11 11 11 11 10 10 10 10 10 10 9 9 9 10 10 9 9 8 9 11 10 11 10 9 10 11 11 10 7 6 5 6 8 9 9 9 10 11 12 10 6 7 9 9 10 8 5 5 5 6 9 12 12 12 11 12 11 9 10 8 8 10 11 13 16 16 8 2 3 2 -4 -10 -11 -14 -14 -6 5 12 14 14
9 9 8 8 9 9 9 9 10 10 10 10 8 8 9 9 11 10 9 9 9 9 9 9 9 7 8 11 9 9 9 9 11 12 11 10 10 8 6 7 8 8 9 12 11 9 12 11 8 10 11 9 8 8 6 5 3 3 7 11 12 10 9 11 12 10 10 8 7 9 9 10 14 17 16 10 9 8 2 -4 -8 -9 -11 -8 4 12 12 14
9 9 8 8 9 9 9 9 9 9 9 9 7 7 8 9 11 10 10 9 9 10 8 7 7 5 8 10 9 9 9 8 11 12 11 11 11 9 8 9 10 11 13 14 12 9 11 12 14 15 10 7 7 10 11 9 5 3 3 8 12 12 9 9 10 9 10 8 6 6 6 8 10 12 13 12 12 11 8 5 -0 -5 -10 -7 7 14 13 14
9 9 9 10 10 10 10 10 10 9 9 9 7 7 9 9 9 10 10 9 10 10 9 11 8 6 10 9 8 8 8 12 12 10 10 11 10 10 9 8 9 14 16 13 12 11 11 13 17 15 8 8 11 12 14 14 11 6 2 5 10 13 12 10 10 8 8 9 8 5 5 6 8 10 8 8 8 6 7 9 7 3 2 7 13 12 10 11
10 10 11 11 10 10 10 10 11 10 10 10 8 9 10 10 9 9 8 8 14 15 9 12 11 7 10 12 13 8 7 18 17 9 11 11 11 11 9 8 9 12 11 10 12 12 13 16 15 9 7 11 10 9 12 14 14 10 5 5 8 11 13 12 12 11 8 9 10 8 9 11 10 11 10 9 8 6 7 9 11 11 13 18 17 10 12 13
11 12 12 12 11 11 10 10 10 9 10 10 9 9 9 10 9 9 8 6 15 21 12 11 11 10 14 13 13 11 12 20 15 9 14 12 11 9 7 10 11 11 10 11 13 12 14 15 9 5 5 8 8 8 10 11 14 14 7 5 9 8 10 13 13 11 7 8 15 14 10 13 14 12 12 12 10 12 15 15 15 17 15 17 14 7 12 14
12 12 12 12 11 11 10 9 10 9 10 10 9 9 8 8 8 7 9 5 8 16 12 10 9 10 13 9 8 10 11 17 16 15 15 11 10 9 9 11 9 12 16 14 11 12 16 13 6 6 7 7 8 8 10 11 13 15 10 6 11 8 7 13 13 9 6 7 15 17 11 12 14 12 12 13 11 13 15 15 17 16 12 11 9 4 9 10
12 13 12 13 11 10 9 9 9 9 9 9 8 9 7 8 8 7 10 8 6 12 13 12 9 6 9 11 14 12 10 19 24 17 12 10 10 9 8 7 9 16 18 13 11 14 15 10 4 6 9 8 9 10 12 12 11 13 12 8 10 9 6 9 9 6 8 9 10 12 11 12 12 11 12 13 13 13 12 13 15 14 12 11 7 6 9 8
12 13 12 12 10 9 8 8 9 8 9 9 8 9 8 8 9 9 11 9 7 10 12 12 10 8 10 12 14 12 13 20 18 11 11 12 8 7 6 8 13 17 14 11 12 15 12 7 5 6 7 6 6 9 11 12 12 11 11 10 9 8 6 7 8 6 11 12 7 5 8 11 11 11 14 15 15 15 15 15 16 12 11 10 6 11 13 8
12 12 11 9 9 9 8 8 9 8 9 9 9 10 10 9 10 11 11 9 9 10 10 10 10 9 11 12 12 13 13 14 12 11 12 11 8 7 7 9 13 15 14 12 13 16 11 5 5 5 5 5 6 9 9 9 11 8 7 9 9 8 6 5 6 8 13 13 5 1 5 7 8 12 19 21 20 20 17 16 18 15 13 13 10 12 10 5
11 10 9 8 8 9 8 9 9 9 9 10 10 10 9 10 10 11 11 10 11 11 10 11 12 11 13 16 18 17 13 9 12 12 7 4 5 6 7 8 11 12 14 16 14 13 8 4 5 5 5 6 8 9 9 10 9 5 5 7 9 10 8 5 5 6 13 17 7 -1 -0 1 12 25 26 23 20 18 15 11 13 15 16 20 19 14 6 2
10 10 9 8 9 9 9 9 9 9 10 10 10 10 10 11 10 11 11 10 9 9 8 9 10 10 13 17 19 19 15 9 9 8 5 4 5 5 7 6 6 5 10 16 14 8 5 6 6 6 6 7 8 7 8 11 9 6 5 5 9 11 8 7 6 6 12 19 13 4 -1 -0 21 33 17 8 9 6 9 8 6 9 13 15 15 11 6 3
10 9 9 8 9 9 8 9 9 9 10 10 10 10 10 10 10 11 11 12 11 9 9 9 10 12 13 16 18 18 17 12 8 8 8 8 7 6 6 5 4 5 10 15 12 7 5 6 6 8 8 7 7 6 7 9 9 9 8 7 8 9 9 7 7 8 9 15 17 12 2 1 25 28 -3 -9 2 2 7 6 2 5 7 10 10 8 9 6
9 8 8 9 9 9 9 10 10 11 12 12 12 11 11 11 11 11 12 12 10 9 10 8 9 12 11 13 17 18 18 14 10 10 11 9 7 6 6 7 6 6 13 19 14 8 6 3 5 9 10 8 8 6 7 8 8 10 11 11 11 11 11 9 9 10 5 12 21 16 7 5 22 25 -5 -14 0 6 9 2 -2 2 2 7 8 5 7 4
8 8 9 11 11 11 12 11 12 13 13 13 12 12 12 12 13 14 12 10 9 10 11 9 9 9 8 11 14 16 16 14 11 10 11 10 9 11 11 11 10 7 13 20 17 10 7 4 4 8 10 10 10 7 6 6 8 11 11 12 13 12 11 9 10 11 7 19 22 9 10 11 17 23 5 -7 3 11 12 4 0 3 4 7 7 5 5 1
10 10 11 12 12 12 12 11 11 11 11 11 11 10 10 11 13 14 11 10 9 12 12 11 11 9 10 12 12 12 12 12 11 9 9 8 9 12 13 11 9 7 9 16 16 10 7 6 6 10 12 9 9 10 9 9 11 15 16 16 14 10 10 9 10 10 11 22 18 1 6 10 11 19 8 -2 9 12 8 5 2 0 2 6 8 11 8 6
11 11 11 11 11 11 10 10 10 10 11 11 10 10 11 12 13 11 9 8 10 14 13 11 11 10 10 11 9 10 11 9 9 8 6 6 6 8 10 9 7 7 7 11 14 10 7 7 8 10 11 8 9 10 10 9 8 8 9 11 11 9 9 10 12 14 17 24 16 -0 2 6 9 15 8 4 11 8 2 1 1 -2 -1 5 8 9 8 10
10 10 10 10 11 11 11 11 10 11 12 12 11 11 13 13 11 9 8 8 10 14 15 13 12 9 9 10 8 9 9 7 6 7 6 6 6 6 8 9 8 8 8 9 14 13 8 8 8 8 9 8 9 9 8 7 6 6 3 3 8 13 15 18 20 18 20 24 14 -0 0 5 9 11 8 8 9 7 3 -1 -1 2 3 6 5 4 6 4
9 9 10 11 12 12 12 12 12 12 12 11 11 11 12 11 10 11 10 11 13 14 15 15 13 11 9 8 8 7 7 6 5 6 9 8 4 2 4 6 6 8 8 8 12 14 12 12 9 6 7 7 7 8 7 9 11 9 6 3 6 11 13 18 23 20 19 22 14 5 3 3 7 9 6 6 6 7 7 2 3 3 1 0 -2 -0 1 2
10 11 11 12 13 13 13 13 11 11 11 11 11 10 10 10 11 12 12 13 14 14 16 16 12 12 11 8 7 8 7 7 7 7 11 14 11 5 3 4 4 6 8 8 9 9 10 13 9 5 6 6 5 6 8 13 15 12 10 6 4 6 6 7 13 13 15 19 15 10 8 2 3 7 6 5 3 4 5 3 1 -3 -0 6 7 15 12 14
11 12 13 13 13 12 12 11 10 9 9 10 10 9 9 9 9 10 11 12 13 14 17 16 11 11 11 9 8 9 6 4 7 7 6 11 15 12 8 5 5 7 7 8 9 9 11 12 8 6 7 5 3 6 12 16 16 13 10 8 6 6 5 5 7 8 12 17 13 10 9 5 2 3 6 5 1 1 -1 -2 2 4 11 15 13 20 13 10
12 12 12 11 10 10 10 9 9 9 9 9 10 10 10 9 9 9 9 10 11 13 16 17 14 9 8 9 9 9 7 4 4 6 4 4 8 12 12 9 8 9 8 8 9 9 11 12 10 9 10 7 5 9 10 7 9 11 6 5 6 4 3 5 8 8 9 13 14 12 10 7 4 1 3 4 2 2 -1 -2 7 12 9 0 0 17 11 -3
11 10 10 10 10 10 10 10 10 10 11 11 11 11 10 10 10 10 11 11 11 11 13 16 17 11 5 7 7 5 5 5 5 6 7 6 5 7 11 10 7 7 7 9 11 11 11 11 10 11 11 9 7 10 7 -2 -1 7 7 5 5 4 3 3 5 8 7 7 11 14 15 12 8 4 2 4 4 1 -2 -1 5 11 9 -8 -5 23 21 2
10 9 10 10 10 10 11 10 10 9 8 8 7 8 9 9 8 9 11 12 12 10 10 12 17 17 9 5 5 6 5 5 8 9 8 7 7 9 11 8 6 7 7 8 9 11 12 12 11 10 10 9 6 6 8 2 -2 3 7 8 6 4 4 2 2 5 6 6 7 8 12 15 14 11 5 2 4 0 2 11 14 20 22 6 14 42 26 4
11 11 11 11 11 11 10 7 7 7 7 9 9 10 12 12 11 10 10 11 12 12 11 9 11 17 16 9 5 7 7 5 6 9 8 5 4 7 10 8 6 5 6 8 10 11 10 11 13 11 6 7 7 7 9 7 3 2 4 8 8 6 5 3 3 5 5 7 8 7 8 10 13 16 13 9 10 9 11 19 22 26 29 20 31 53 29 -0
12 11 11 11 10 8 5 4 6 8 9 10 11 12 14 16 18 18 17 16 13 11 12 11 10 12 16 15 8 5 8 9 6 5 7 7 5 5 7 10 13 13 9 5 8 12 10 8 12 13 7 4 6 8 7 7 8 7 4 5 8 9 8 5 4 6 7 5 5 6 8 8 8 10 14 12 12 15 14 13 12 17 27 20 11 23 22 6
12 11 10 9 8 5 3 5 7 9 10 10 11 12 14 16 18 20 22 24 24 20 16 13 12 10 13 16 12 4 4 10 10 7 7 7 7 9 10 8 7 9 12 12 11 12 11 8 11 14 10 4 3 5 5 7 9 8 5 5 6 9 9 6 5 7 9 6 5 7 9 13 13 9 9 7 5 11 15 14 11 8 15 18 11 20 30 16
10 9 7 7 7 5 5 6 7 8 11 13 14 13 11 9 7 6 10 15 20 25 25 21 16 12 11 15 14 7 1 4 8 9 7 5 5 7 12 16 15 10 8 11 12 11 8 5 8 13 13 6 3 5 6 8 7 3 4 4 4 7 8 7 6 5 6 5 5 6 8 13 18 16 12 9 5 6 8 10 12 9 9 9 9 22 31 21
7 6 6 7 8 8 7 8 8 8 13 19 19 12 5 1 -1 -0 3 5 6 12 19 24 24 18 13 14 16 13 4 -2 3 9 9 7 6 6 2 2 9 14 14 13 13 11 9 6 5 9 12 9 6 7 7 9 8 4 3 4 5 7 8 8 7 5 5 5 3 3 4 6 11 14 14 12 9 6 6 7 6 10 13 6 6 26 34 22
7 7 8 9 9 9 9 9 9 10 13 22 27 20 8 1 -2 -1 2 5 7 9 11 16 22 23 18 13 14 18 13 1 -2 3 7 6 10 20 21 7 -3 -2 6 15 19 17 14 10 7 6 8 9 9 7 7 8 9 7 5 4 5 6 6 7 8 7 5 4 4 4 4 3 5 8 9 9 8 7 7 9 6 6 9 4 7 27 29 13
9 8 9 9 8 8 9 8 9 11 15 20 25 25 18 9 4 4 6 10 14 17 17 15 15 19 22 16 13 16 18 14 6 0 3 5 3 7 16 17 11 3 -1 5 14 19 17 12 10 9 11 14 11 5 5 8 8 8 8 6 4 3 3 5 8 10 9 7 6 5 3 3 2 3 5 5 7 7 5 8 9 7 7 4 3 10 9 8
9 8 9 9 9 9 8 7 8 11 18 20 17 15 15 12 10 11 13 16 18 19 24 25 18 15 20 20 16 15 15 18 18 11 4 0 -5 -9 -10 -8 -3 -1 2 5 7 13 19 17 13 12 14 23 23 11 4 7 7 6 7 6 4 3 3 3 4 7 10 10 10 7 5 3 1 2 4 3 3 5 6 8 10 9 10 12 12 9 7 12
8 8 9 9 10 11 9 7 7 9 18 24 17 11 10 12 13 13 13 17 18 18 26 32 26 17 18 20 18 18 16 12 13 18 18 10 -1 -10 -13 -12 -7 -2 4 10 8 8 14 18 18 16 14 18 22 17 10 9 8 7 7 7 6 3 3 3 2 2 4 7 11 10 8 7 4 2 3 3 3 4 5 6 7 8 8 8 8 7 8 13
7 8 9 9 11 11 9 8 7 7 15 23 20 11 10 13 14 15 19 19 15 18 26 32 29 20 19 22 19 19 21 16 9 8 13 21 21 9 -2 -4 3 12 13 10 9 8 8 12 16 19 18 14 11 12 15 15 12 8 7 8 9 9 6 5 3 2 2 4 8 10 9 7 5 5 5 5 4 5 5 5 7 12 12 6 3 4 6 7
7 8 8 8 10 11 10 8 6 6 14 23 22 14 14 15 11 18 30 22 12 21 28 28 27 21 16 18 18 19 21 20 17 10 -1 4 16 20 21 16 8 8 9 6 9 10 6 7 11 13 18 18 13 10 11 16 17 14 9 6 6 9 10 10 9 6 5 5 4 6 9 7 5 6 9 9 5 2 2 3 5 11 17 17 15 13 11 7
Height
5738 5738 5739 5740 5741 5742 5742 5743 5744 5744 5745 5746 5746 5747 5748 5749 5750 5750 5751 5751 5752 5753 5753 5754 5755 5755 5756 5757 5758 5758 5759 5760 5760 5761 5761 5762 5763 5762 5763 5764 5764 5765 5765 5766 5767 5767 5767 5768 5768 5769 5769 5769 5769 5770 5770 5771 5772 5773 5773 5774 5775 5778 5780 5780 5780 5780 5780 5782 5784 5785 5786 5787 5788 5789 5790 5791 5792 5794 5795 5796 5797 5798 5799 5800 5801 5802 5802 5803
5735 5735 5736 5737 5737 5738 5739 5740 5741 5741 5742 5743 5743 5744 5745 5746 5746 5747 5748 5748 5749 5749 5750 5750 5751 5752 5753 5754 5754 5755 5756 5756 5757 5758 5758 5759 5759 5759 5759 5761 5761 5761 5762 5762 5763 5764 5764 5765 5765 5765 5765 5765 5766 5766 5767 5768 5769 5769 5770 5771 5773 5776 5778 5777 5777 5777 5778 5780 5782 5782 5782 5784 5785 5787 5788 5789 5789 5790 5791 5793 5794 5795 5796 5797 5798 5799 5799 5800
5732 5732 5733 5733 5734 5735 5736 5737 5737 5738 5739 5740 5740 5741 5742 5742 5743 5744 5744 5745 5745 5746 5746 5747 5748 5749 5750 5750 5751 5752 5753 5754 5754 5755 5755 5756 5756 5756 5756 5757 5758 5758 5759 5759 5760 5760 5761 5761 5761 5762 5762 5762 5763 5763 5763 5764 5765 5766 5767 5768 5771 5774 5774 5774 5774 5774 5775 5777 5778 5779 5780 5781 5783 5784 5785 5786 5787 5788 5789 5790 5791 5792 5793 5794 5795 5796 5796 5797
5729 5729 5730 5730 5731 5732 5732 5733 5734 5735 5736 5736 5737 5738 5739 5739 5740 5741 5741 5742 5742 5743 5743 5744 5745 5746 5747 5747 5748 5749 5750 5751 5751 5752 5753 5753 5753 5753 5754 5754 5755 5755 5756 5756 5757 5757 5758 5758 5758 5758 5759 5759 5760 5760 5760 5761 5762 5763 5764 5765 5768 5770 5771 5771 5772 5772 5773 5774 5775 5776 5777 5778 5780 5781 5782 5784 5785 5786 5786 5787 5788 5789 5791 5792 5793 5794 5794 5796
5726 5727 5727 5728 5728 5729 5729 5730 5731 5731 5732 5733 5734 5735 5735 5736 5737 5738 5738 5739 5739 5740 5740 5741 5742 5743 5744 5745 5745 5746 5747 5747 5748 5749 5749 5750 5750 5750 5751 5751 5752 5752 5753 5753 5754 5754 5754 5755 5755 5755 5756 5756 5756 5756 5757 5758 5758 5759 5761 5762 5765 5767 5769 5769 5770 5770 5771 5772 5772 5773 5774 5776 5777 5778 5779 5781 5782 5783 5784 5785 5786 5787 5789 5790 5791 5792 5793 5794
5724 5724 5725 5725 5725 5726 5726 5727 5728 5728 5729 5730 5731 5731 5732 5733 5734 5735 5735 5736 5736 5737 5737 5738 5739 5740 5741 5742 5742 5744 5744 5744 5745 5746 5746 5747 5747 5747 5748 5748 5749 5749 5750 5750 5750 5751 5751 5752 5752 5752 5752 5752 5753 5753 5754 5755 5755 5756 5758 5760 5762 5765 5766 5767 5767 5768 5768 5769 5770 5770 5772 5773 5774 5775 5777 5779 5779 5780 5782 5783 5784 5785 5787 5788 5789 5790 5792 5793
5721 5721 5722 5722 5723 5723 5724 5724 5725 5725 5726 5727 5727 5728 5729 5730 5731 5731 5732 5733 5733 5734 5735 5735 5736 5737 5738 5739 5740 5741 5741 5742 5743 5743 5743 5744 5744 5744 5745 5745 5746 5746 5747 5747 5747 5748 5748 5749 5749 5749 5749 5749 5750 5750 5751 5752 5752 5754 5756 5758 5760 5761 5763 5764 5764 5764 5765 5766 5767 5768 5770 5771 5772 5773 5775 5777 5777 5778 5780 5781 5783 5784 5786 5787 5788 5789 5790 5792
5718 5718 5719 5719 5720 5720 5721 5721 5722 5722 5723 5724 5724 5725 5726 5727 5728 5728 5729 5730 5730 5731 5732 5733 5733 5734 5735 5736 5737 5738 5738 5739 5740 5740 5740 5741 5741 5741 5742 5743 5743 5743 5744 5744 5744 5745 5746 5746 5746 5746 5746 5746 5747 5747 5748 5749 5750 5752 5754 5755 5756 5758 5760 5760 5760 5762 5763 5765 5766 5767 5769 5769 5770 5771 5773 5775 5776 5777 5779 5780 5782 5783 5784 5785 5786 5787 5789 5791
5714 5715 5715 5716 5717 5717 5718 5718 5719 5720 5720 5721 5721 5722 5723 5724 5724 5725 5726 5727 5727 5728 5729 5730 5730 5731 5732 5733 5734 5734 5735 5736 5736 5737 5737 5738 5738 5739 5739 5740 5740 5740 5741 5741 5741 5742 5742 5742 5742 5743 5743 5744 5745 5745 5745 5746 5748 5750 5752 5752 5754 5756 5758 5758 5759 5761 5762 5764 5765 5766 5768 5768 5767 5769 5771 5773 5775 5776 5778 5779 5780 5782 5783 5783 5784 5786 5789 5790
5710 5711 5712 5713 5713 5714 5715 5715 5716 5717 5717 5718 5718 5719 5720 5721 5721 5722 5723 5723 5724 5725 5725 5726 5727 5728 5729 5730 5730 5730 5732 5733 5733 5733 5734 5735 5736 5736 5736 5736 5737 5737 5737 5738 5738 5739 5739 5739 5740 5741 5741 5742 5742 5743 5743 5744 5745 5748 5749 5750 5752 5754 5755 5756 5758 5760 5761 5763 5764 5766 5767 5766 5765 5767 5770 5772 5774 5775 5776 5778 5779 5781 5781 5782 5784 5786 5789 5789
5707 5707 5708 5709 5710 5710 5711 5712 5713 5713 5714 5715 5715 5716 5717 5717 5718 5719 5719 5720 5721 5721 5722 5723 5724 5724 5725 5726 5727 5727 5729 5729 5729 5730 5731 5731 5732 5732 5733 5733 5734 5734 5735 5735 5735 5736 5736 5737 5738 5738 5739 5739 5740 5741 5741 5742 5743 5745 5747 5749 5750 5752 5753 5755 5757 5759 5760 5762 5763 5764 5765 5765 5764 5766 5769 5770 5772 5773 5775 5777 5778 5779 5781 5782 5784 5785 5787 5787
5703 5704 5705 5705 5706 5707 5707 5708 5709 5710 5711 5711 5712 5713 5713 5714 5715 5716 5716 5717 5717 5718 5718 5719 5720 5721 5722 5722 5723 5724 5725 5726 5726 5727 5727 5728 5729 5729 5729 5730 5731 5731 5732 5732 5733 5733 5734 5734 5735 5735 5736 5737 5738 5738 5739 5740 5741 5743 5745 5747 5748 5750 5752 5754 5756 5757 5758 5761 5762 5762 5763 5764 5764 5766 5768 5769 5771 5772 5774 5776 5777 5778 5780 5781 5782 5782 5784 5785
5699 5700 5701 5701 5702 5703 5704 5704 5705 5706 5707 5708 5708 5709 5710 5711 5711 5712 5713 5713 5714 5714 5715 5716 5716 5717 5718 5718 5720 5721 5721 5722 5723 5723 5724 5725 5725 5726 5727 5728 5728 5728 5728 5729 5730 5731 5731 5732 5732 5733 5734 5735 5736 5736 5737 5738 5740 5741 5742 5745 5747 5748 5750 5752 5754 5755 5756 5758 5759 5759 5760 5762 5763 5764 5766 5768 5770 5772 5773 5775 5776 5777 5778 5779 5780 5780 5782 5782
5696 5696 5697 5698 5698 5699 5700 5701 5702 5702 5703 5704 5705 5705 5706 5707 5707 5708 5709 5709 5710 5711 5711 5712 5713 5714 5714 5714 5716 5718 5718 5719 5719 5720 5721 5722 5723 5724 5724 5725 5725 5725 5726 5727 5728 5728 5729 5729 5730 5731 5732 5733 5734 5734 5736 5737 5738 5739 5741 5743 5745 5746 5748 5750 5750 5752 5753 5755 5756 5756 5757 5760 5762 5762 5764 5766 5768 5771 5772 5773 5775 5775 5776 5778 5778 5778 5780 5780
5692 5693 5694 5694 5695 5695 5696 5697 5698 5699 5700 5700 5701 5702 5702 5703 5703 5704 5705 5706 5707 5708 5708 5709 5710 5711 5711 5711 5713 5714 5714 5716 5716 5717 5719 5719 5719 5720 5721 5722 5722 5723 5723 5724 5725 5725 5726 5727 5728 5729 5730 5731 5732 5733 5734 5735 5736 5738 5739 5741 5742 5743 5745 5747 5747 5748 5750 5751 5752 5752 5753 5757 5760 5760 5762 5764 5766 5768 5770 5772 5773 5773 5774 5775 5776 5777 5778 5779
5689 5689 5690 5691 5691 5692 5693 5694 5695 5695 5696 5696 5697 5698 5699 5699 5700 5701 5702 5703 5704 5705 5706 5706 5707 5708 5708 5708 5710 5711 5711 5712 5713 5714 5715 5715 5715 5717 5718 5719 5719 5719 5720 5721 5721 5722 5723 5724 5725 5726 5727 5729 5730 5731 5732 5733 5734 5735 5737 5739 5740 5741 5743 5744 5744 5745 5747 5748 5748 5748 5749 5753 5756 5757 5758 5761 5763 5766 5768 5770 5771 5771 5772 5773 5774 5775 5777 5778
5685 5686 5687 5687 5688 5688 5689 5690 5691 5692 5692 5692 5693 5694 5695 5696 5697 5698 5699 5700 5701 5702 5703 5703 5704 5704 5704 5704 5706 5707 5708 5709 5710 5711 5711 5711 5712 5714 5715 5716 5716 5716 5717 5718 5719 5719 5720 5722 5723 5724 5725 5727 5728 5729 5730 5731 5733 5733 5734 5736 5737 5739 5740 5741 5742 5743 5744 5744 5744 5744 5746 5749 5752 5753 5755 5757 5760 5762 5765 5767 5768 5769 5769 5771 5772 5774 5776 5776
5682 5682 5683 5684 5684 5685 5686 5687 5688 5688 5688 5689 5689 5690 5692 5693 5694 5695 5696 5697 5697 5698 5699 5699 5700 5700 5700 5700 5702 5703 5704 5705 5706 5707 5708 5708 5709 5711 5711 5712 5713 5713 5714 5715 5716 5717 5718 5719 5720 5721 5723 5725 5726 5727 5728 5730 5730 5731 5732 5734 5735 5737 5738 5739 5740 5740 5740 5741 5741 5741 5743 5747 5749 5750 5752 5754 5756 5759 5763 5765 5766 5766 5767 5769 5771 5773 5775 5774
5678 5679 5680 5680 5681 5682 5683 5683 5684 5684 5684 5685 5686 5688 5689 5691 5691 5692 5692 5693 5693 5694 5694 5695 5695 5696 5696 5697 5698 5699 5700 5701 5702 5704 5704 5705 5706 5708 5708 5709 5710 5710 5711 5712 5713 5714 5715 5716 5717 5720 5722 5724 5724 5725 5726 5727 5728 5729 5730 5731 5733 5735 5736 5737 5737 5737 5737 5737 5738 5739 5741 5744 5747 5749 5750 5752 5754 5757 5760 5762 5763 5764 5766 5768 5770 5772 5773 5773
5674 5675 5676 5677 5678 5679 5679 5680 5680 5681 5681 5681 5682 5685 5686 5687 5688 5688 5689 5689 5689 5689 5690 5691 5692 5692 5693 5693 5695 5696 5696 5698 5699 5699 5701 5702 5703 5705 5706 5706 5707 5708 5709 5710 5710 5711 5712 5713 5716 5719 5721 5721 5721 5722 5723 5724 5725 5727 5728 5729 5731 5733 5735 5735 5735 5734 5733 5734 5736 5737 5738 5741 5745 5746 5747 5749 5749 5752 5757 5759 5761 5762 5764 5767 5769 5770 5771 5771
5671 5671 5673 5673 5674 5675 5676 5677 5677 5677 5677 5677 5679 5682 5683 5684 5684 5684 5685 5685 5685 5685 5687 5688 5689 5690 5690 5690 5692 5693 5693 5695 5696 5696 5698 5699 5700 5702 5703 5704 5704 5705 5706 5707 5707 5709 5709 5711 5715 5718 5718 5718 5719 5719 5720 5721 5723 5724 5726 5727 5729 5731 5733 5733 5732 5732 5731 5732 5734 5735 5737 5740 5743 5744 5745 5744 5745 5748 5754 5757 5758 5760 5762 5765 5767 5768 5769 5769
5667 5668 5669 5670 5671 5672 5673 5673 5673 5674 5674 5675 5676 5678 5679 5680 5680 5680 5681 5682 5681 5683 5685 5685 5686 5688 5687 5687 5688 5689 5691 5692 5692 5693 5695 5696 5697 5699 5700 5701 5701 5702 5703 5703 5704 5706 5707 5710 5714 5715 5715 5716 5716 5716 5717 5719 5720 5722 5724 5725 5728 5730 5731 5731 5730 5729 5728 5730 5733 5734 5736 5738 5741 5742 5742 5741 5742 5747 5752 5754 5756 5757 5759 5762 5764 5765 5766 5767
5663 5664 5666 5667 5667 5668 5669 5669 5670 5671 5671 5672 5673 5675 5675 5676 5677 5677 5678 5679 5679 5680 5681 5682 5683 5684 5683 5684 5685 5685 5687 5689 5689 5690 5692 5693 5694 5695 5697 5698 5698 5699 5699 5700 5702 5703 5706 5709 5711 5711 5712 5713 5713 5714 5715 5717 5718 5720 5722 5724 5726 5728 5728 5729 5728 5727 5726 5728 5732 5733 5733 5736 5738 5739 5739 5739 5741 5745 5749 5751 5752 5753 5755 5758 5761 5761 5763 5766
5660 5661 5662 5663 5664 5665 5665 5666 5667 5667 5668 5669 5670 5671 5672 5672 5673 5673 5675 5677 5677 5677 5678 5678 5680 5681 5680 5681 5681 5681 5683 5686 5686 5687 5689 5690 5691 5692 5694 5694 5695 5696 5697 5698 5700 5701 5704 5707 5707 5708 5709 5710 5711 5712 5713 5715 5717 5718 5720 5722 5724 5725 5726 5727 5726 5724 5724 5727 5730 5731 5730 5734 5736 5736 5736 5737 5739 5742 5744 5746 5748 5749 5752 5755 5757 5758 5760 5763
5656 5658 5659 5659 5660 5661 5662 5662 5663 5664 5664 5666 5667 5668 5668 5668 5669 5670 5672 5674 5674 5674 5675 5675 5676 5677 5677 5677 5678 5678 5680 5682 5684 5684 5686 5687 5688 5689 5690 5691 5693 5694 5695 5697 5697 5699 5703 5704 5704 5706 5708 5708 5710 5711 5712 5713 5715 5716 5719 5721 5722 5723 5723 5724 5722 5721 5724 5726 5727 5727 5728 5732 5733 5733 5734 5735 5736 5739 5741 5743 5745 5747 5750 5752 5754 5756 5758 5761
5653 5654 5655 5656 5656 5657 5659 5659 5660 5661 5661 5662 5664 5664 5665 5665 5666 5667 5669 5670 5670 5671 5672 5672 5672 5673 5673 5674 5674 5674 5676 5680 5681 5681 5683 5684 5685 5686 5687 5689 5691 5692 5693 5694 5694 5697 5701 5702 5702 5704 5705 5706 5708 5709 5710 5712 5713 5715 5717 5718 5719 5719 5720 5720 5719 5720 5722 5723 5724 5725 5727 5730 5731 5731 5732 5732 5734 5736 5738 5741 5743 5745 5747 5749 5752 5755 5757 5759
5650 5651 5652 5653 5653 5654 5655 5656 5657 5657 5658 5659 5660 5661 5661 5662 5663 5664 5665 5666 5667 5668 5668 5668 5668 5669 5670 5670 5671 5672 5674 5677 5678 5678 5680 5682 5682 5683 5685 5687 5689 5690 5691 5691 5692 5697 5699 5699 5700 5702 5703 5704 5706 5708 5708 5709 5711 5713 5714 5714 5715 5716 5716 5716 5716 5717 5719 5720 5722 5723 5725 5727 5729 5729 5729 5730 5732 5734 5737 5739 5741 5743 5745 5748 5750 5753 5754 5756
5647 5648 5648 5649 5650 5650 5652 5653 5654 5654 5655 5656 5657 5657 5658 5658 5660 5661 5662 5662 5664 5664 5664 5665 5665 5666 5668 5668 5669 5670 5671 5673 5675 5676 5677 5679 5679 5680 5682 5685 5687 5688 5688 5689 5692 5695 5695 5696 5698 5699 5700 5703 5704 5705 5705 5707 5709 5710 5710 5711 5711 5712 5712 5713 5713 5715 5717 5718 5721 5722 5723 5724 5726 5727 5727 5729 5731 5734 5736 5738 5740 5742 5744 5747 5749 5751 5752 5754
5644 5645 5645 5646 5648 5648 5648 5650 5651 5651 5652 5653 5654 5654 5654 5655 5657 5658 5658 5660 5661 5661 5661 5661 5662 5664 5665 5666 5667 5668 5668 5670 5672 5673 5674 5676 5677 5678 5680 5682 5683 5684 5684 5687 5691 5692 5692 5693 5695 5696 5699 5701 5702 5701 5703 5706 5707 5706 5706 5707 5708 5709 5710 5710 5712 5713 5714 5716 5720 5721 5721 5722 5724 5725 5726 5729 5731 5733 5735 5737 5739 5741 5743 5745 5747 5749 5750 5752
5641 5641 5642 5644 5645 5645 5645 5646 5647 5648 5649 5650 5650 5651 5651 5652 5653 5654 5655 5657 5657 5657 5658 5658 5660 5661 5662 5663 5664 5665 5666 5666 5668 5669 5671 5674 5675 5676 5677 5679 5680 5681 5682 5685 5688 5689 5690 5691 5692 5695 5698 5699 5698 5699 5702 5704 5703 5703 5704 5706 5707 5708 5708 5709 5710 5711 5711 5714 5719 5720 5719 5720 5722 5724 5726 5728 5730 5732 5734 5736 5738 5740 5742 5744 5745 5747 5748 5750
5638 5638 5639 5641 5642 5642 5642 5643 5644 5645 5646 5647 5648 5648 5649 5649 5650 5651 5653 5654 5654 5654 5654 5655 5657 5659 5660 5661 5661 5663 5663 5664 5665 5667 5669 5671 5672 5673 5675 5676 5678 5679 5681 5684 5687 5687 5688 5690 5692 5695 5696 5696 5697 5698 5700 5701 5701 5702 5703 5704 5705 5706 5706 5707 5708 5708 5710 5714 5717 5718 5717 5718 5720 5723 5725 5727 5729 5731 5733 5735 5737 5739 5740 5742 5744 5745 5746 5748
5634 5635 5637 5638 5639 5639 5639 5640 5641 5643 5643 5644 5645 5645 5646 5646 5647 5649 5650 5650 5650 5650 5651 5653 5654 5656 5657 5658 5659 5660 5661 5661 5663 5665 5666 5668 5669 5671 5673 5675 5677 5678 5680 5683 5685 5685 5686 5688 5691 5693 5694 5694 5695 5696 5698 5699 5700 5701 5701 5702 5703 5703 5704 5705 5706 5707 5709 5713 5715 5715 5716 5717 5719 5722 5724 5725 5727 5729 5731 5733 5735 5737 5738 5740 5742 5743 5744 5744
5632 5633 5634 5635 5636 5637 5637 5637 5638 5640 5641 5641 5642 5642 5643 5643 5645 5646 5646 5646 5646 5648 5649 5650 5652 5654 5655 5656 5656 5657 5658 5659 5661 5662 5664 5665 5667 5669 5670 5672 5673 5675 5677 5681 5682 5682 5684 5687 5689 5691 5692 5693 5694 5695 5696 5698 5698 5699 5700 5700 5701 5701 5702 5703 5704 5705 5708 5711 5713 5713 5714 5715 5717 5720 5722 5724 5726 5728 5729 5731 5733 5735 5736 5738 5739 5739 5740 5741
5629 5630 5631 5632 5633 5634 5634 5635 5636 5637 5638 5638 5639 5639 5640 5641 5642 5642 5642 5642 5644 5646 5647 5648 5650 5651 5652 5653 5654 5655 5656 5657 5659 5660 5662 5663 5665 5667 5668 5669 5671 5673 5675 5678 5679 5680 5681 5684 5686 5689 5690 5691 5692 5694 5695 5695 5696 5697 5698 5698 5699 5700 5701 5701 5702 5704 5706 5708 5710 5711 5712 5713 5716 5719 5720 5723 5725 5726 5728 5730 5731 5733 5735 5736 5736 5737 5738 5739
5627 5628 5629 5630 5631 5632 5632 5632 5633 5634 5634 5635 5636 5636 5637 5638 5638 5639 5639 5640 5642 5644 5645 5646 5648 5649 5650 5651 5652 5653 5654 5655 5657 5658 5660 5661 5663 5665 5667 5668 5670 5671 5673 5675 5677 5678 5680 5682 5684 5686 5687 5689 5690 5691 5692 5693 5694 5695 5696 5697 5698 5699 5699 5700 5701 5702 5704 5705 5707 5709 5710 5712 5715 5717 5719 5722 5723 5725 5726 5728 5730 5731 5733 5733 5734 5734 5735 5735
5625 5625 5626 5627 5628 5629 5629 5630 5630 5631 5632 5632 5633 5634 5635 5635 5635 5636 5637 5638 5640 5642 5644 5644 5645 5646 5647 5649 5650 5651 5653 5654 5655 5656 5658 5660 5662 5663 5665 5666 5667 5669 5671 5673 5675 5677 5678 5681 5683 5683 5685 5687 5688 5689 5690 5691 5692 5693 5694 5696 5697 5697 5697 5698 5700 5701 5702 5703 5705 5707 5709 5711 5713 5716 5718 5720 5721 5723 5725 5726 5728 5729 5730 5730 5731 5731 5731 5732
5623 5623 5624 5625 5626 5626 5627 5628 5628 5629 5629 5630 5630 5631 5632 5632 5633 5634 5635 5636 5638 5640 5641 5642 5642 5643 5645 5647 5648 5649 5651 5653 5653 5654 5656 5658 5660 5662 5663 5663 5664 5666 5668 5670 5672 5674 5676 5679 5680 5681 5683 5684 5685 5687 5688 5689 5690 5692 5693 5695 5695 5695 5696 5697 5698 5699 5700 5702 5703 5706 5708 5710 5712 5714 5716 5718 5720 5721 5723 5724 5725 5726 5726 5726 5725 5725 5726 5729
5621 5621 5622 5623 5624 5624 5625 5626 5626 5627 5627 5628 5628 5629 5629 5630 5630 5631 5632 5634 5635 5637 5639 5639 5640 5641 5642 5644 5646 5647 5649 5650 5651 5652 5654 5656 5658 5660 5661 5662 5662 5664 5666 5667 5669 5671 5674 5677 5677 5678 5680 5681 5683 5685 5687 5687 5688 5690 5691 5692 5693 5694 5695 5696 5697 5698 5699 5700 5702 5704 5706 5708 5710 5712 5714 5716 5718 5720 5721 5722 5723 5723 5722 5721 5719 5720 5721 5724
5619 5620 5621 5621 5622 5622 5623 5623 5624 5624 5625 5625 5626 5626 5627 5627 5627 5628 5630 5631 5632 5634 5636 5637 5638 5639 5640 5641 5643 5645 5647 5648 5649 5650 5652 5653 5655 5657 5659 5660 5661 5663 5664 5665 5667 5669 5672 5674 5675 5676 5678 5679 5680 5683 5684 5685 5686 5687 5688 5689 5691 5692 5693 5694 5695 5697 5698 5699 5700 5702 5704 5706 5708 5710 5712 5714 5716 5718 5719 5720 5721 5721 5720 5718 5718 5718 5719 5719
5617 5618 5619 5619 5620 5620 5621 5621 5621 5622 5622 5623 5623 5624 5624 5624 5625 5626 5627 5628 5630 5631 5633 5634 5635 5636 5637 5639 5640 5642 5644 5646 5647 5648 5649 5651 5654 5656 5657 5658 5659 5661 5662 5663 5665 5667 5669 5672 5673 5674 5675 5677 5678 5680 5682 5683 5684 5685 5686 5688 5689 5690 5691 5692 5693 5695 5696 5697 5698 5700 5702 5704 5707 5708 5710 5712 5714 5715 5716 5717 5717 5718 5717 5716 5717 5718 5717 5715
5616 5616 5617 5617 5618 5618 5619 5619 5620 5620 5620 5621 5621 5621 5621 5622 5622 5623 5624 5625 5627 5628 5629 5630 5632 5633 5634 5636 5638 5639 5642 5643 5645 5646 5647 5649 5651 5653 5654 5655 5657 5659 5660 5661 5663 5665 5667 5669 5670 5671 5673 5674 5676 5678 5680 5681 5682 5683 5685 5686 5688 5689 5690 5691 5692 5693 5694 5695 5696 5697 5699 5702 5704 5706 5707 5709 5711 5712 5713 5713 5714 5713 5712 5712 5713 5714 5714 5715
5614 5615 5615 5616 5616 5617 5617 5618 5618 5618 5618 5618 5618 5618 5619 5619 5619 5619 5621 5622 5623 5624 5626 5627 5628 5630 5632 5633 5635 5637 5638 5641 5642 5644 5645 5646 5648 5650 5651 5653 5654 5656 5657 5658 5660 5662 5664 5666 5668 5669 5670 5672 5674 5675 5677 5679 5680 5681 5683 5684 5685 5687 5688 5690 5691 5692 5693 5694 5695 5696 5697 5699 5701 5703 5705 5706 5708 5708 5709 5710 5710 5710 5709 5709 5708 5709 5712 5715
5613 5613 5614 5614 5615 5615 5616 5616 5616 5616 5616 5616 5616 5616 5616 5616 5616 5616 5617 5618 5620 5621 5622 5623 5625 5627 5628 5630 5632 5634 5636 5638 5640 5641 5643 5644 5646 5647 5649 5650 5651 5653 5654 5655 5657 5660 5662 5664 5666 5667 5668 5670 5672 5673 5675 5676 5678 5679 5681 5682 5683 5685 5687 5688 5689 5690 5691 5692 5693 5694 5695 5697 5699 5701 5703 5704 5705 5706 5707 5707 5708 5708 5707 5707 5707 5708 5710 5712
5611 5612 5612 5613 5613 5614 5614 5614 5614 5614 5613 5613 5613 5613 5613 5613 5614 5614 5614 5615 5616 5617 5619 5620 5621 5623 5625 5626 5629 5631 5633 5635 5637 5639 5641 5642 5644 5645 5646 5648 5649 5650 5652 5653 5655 5657 5660 5662 5664 5665 5666 5668 5669 5670 5672 5674 5676 5677 5679 5680 5681 5683 5684 5686 5687 5688 5689 5690 5691 5692 5693 5695 5696 5698 5700 5701 5702 5703 5704 5705 5705 5706 5706 5706 5707 5707 5708 5709
5610 5610 5611 5612 5612 5612 5613 5612 5612 5611 5610 5610 5610 5610 5610 5611 5611 5611 5611 5612 5613 5614 5615 5616 5618 5619 5621 5623 5625 5628 5630 5632 5634 5635 5638 5640 5642 5643 5644 5645 5647 5648 5649 5651 5653 5655 5657 5659 5661 5663 5664 5665 5666 5668 5671 5672 5674 5675 5676 5678 5679 5681 5682 5683 5685 5686 5687 5688 5689 5691 5692 5693 5695 5696 5697 5699 5699 5700 5702 5703 5703 5704 5704 5705 5706 5706 5706 5707
5609 5609 5610 5611 5611 5611 5611 5610 5610 5609 5608 5608 5608 5608 5608 5609 5609 5609 5609 5610 5610 5611 5612 5613 5614 5615 5617 5619 5621 5624 5626 5628 5631 5633 5635 5637 5640 5641 5642 5643 5644 5645 5647 5649 5650 5652 5654 5656 5658 5660 5661 5663 5664 5666 5668 5670 5672 5673 5675 5676 5677 5678 5680 5681 5683 5684 5685 5686 5687 5689 5691 5692 5693 5694 5695 5696 5697 5698 5700 5701 5702 5702 5703 5704 5705 5704 5705 5706
5608 5608 5609 5609 5609 5609 5609 5608 5608 5607 5606 5606 5605 5605 5606 5606 5607 5607 5607 5607 5607 5607 5608 5609 5610 5611 5613 5615 5618 5620 5622 5624 5626 5630 5632 5635 5637 5639 5640 5640 5642 5643 5645 5646 5647 5649 5651 5653 5655 5657 5658 5660 5662 5663 5665 5667 5669 5671 5672 5674 5675 5676 5677 5679 5680 5681 5683 5684 5685 5687 5689 5690 5691 5692 5693 5694 5695 5696 5698 5699 5700 5700 5701 5702 5703 5703 5703 5705
5607 5607 5607 5607 5607 5607 5607 5606 5606 5605 5604 5603 5603 5603 5603 5604 5604 5604 5604 5603 5603 5603 5604 5605 5606 5607 5609 5611 5614 5616 5618 5620 5622 5626 5630 5632 5635 5637 5637 5637 5639 5641 5643 5645 5646 5647 5648 5650 5652 5654 5655 5656 5658 5660 5662 5664 5666 5668 5670 5671 5673 5674 5675 5676 5677 5679 5680 5682 5683 5685 5686 5687 5689 5690 5691 5692 5693 5694 5696 5697 5697 5699 5700 5701 5701 5702 5703 5704
5606 5606 5606 5606 5606 5606 5605 5605 5604 5603 5602 5601 5601 5601 5601 5601 5601 5601 5600 5600 5599 5599 5599 5600 5602 5603 5605 5607 5609 5611 5615 5617 5620 5623 5627 5630 5632 5633 5634 5635 5637 5639 5641 5643 5645 5646 5647 5647 5649 5650 5651 5653 5654 5656 5659 5661 5663 5665 5667 5668 5670 5671 5672 5673 5675 5676 5677 5679 5680 5682 5683 5685 5686 5687 5688 5690 5691 5692 5694 5695 5696 5697 5698 5699 5699 5700 5701 5702
5605 5605 5605 5605 5605 5605 5604 5603 5602 5601 5600 5600 5599 5599 5599 5598 5598 5597 5596 5596 5595 5595 5595 5595 5597 5599 5601 5603 5605 5607 5611 5615 5618 5621 5624 5627 5628 5630 5631 5633 5635 5637 5639 5641 5643 5644 5645 5646 5647 5647 5649 5650 5651 5653 5656 5657 5659 5661 5663 5665 5667 5668 5669 5670 5672 5673 5674 5676 5678 5679 5681 5683 5684 5685 5686 5687 5689 5690 5692 5693 5694 5695 5696 5697 5697 5698 5699 5700
5604 5604 5604 5604 5604 5603 5602 5602 5601 5600 5599 5598 5598 5597 5597 5596 5595 5594 5593 5593 5592 5592 5592 5592 5594 5596 5598 5599 5601 5603 5607 5611 5615 5618 5620 5623 5625 5627 5629 5631 5633 5635 5637 5639 5641 5642 5643 5644 5644 5645 5646 5647 5649 5650 5652 5654 5655 5657 5659 5661 5663 5665 5666 5667 5669 5670 5671 5673 5675 5676 5678 5680 5681 5683 5684 5685 5686 5687 5689 5691 5692 5693 5694 5694 5695 5696 5697 5697
5603 5603 5603 5603 5602 5602 5601 5600 5600 5599 5598 5597 5596 5595 5595 5594 5593 5592 5591 5590 5590 5590 5589 5590 5591 5593 5595 5596 5598 5600 5604 5608 5611 5614 5617 5620 5623 5625 5626 5628 5631 5633 5635 5637 5639 5640 5641 5642 5642 5643 5644 5645 5646 5647 5649 5650 5651 5653 5655 5657 5659 5661 5662 5664 5665 5667 5668 5670 5671 5673 5675 5677 5678 5680 5681 5682 5683 5684 5686 5687 5689 5690 5691 5692 5692 5693 5694 5694